Вернуться в каталог

FENGYUN 1C DEB

АктивенPO
NORAD 32303·DEBRIS·🇨🇳 China

Запущен May 10, 1999 с Taiyuan Satellite Launch Center

Loading…

Ближайшие Пролёты (ближайшие 24 часа)

TLE

УстаревающийSource: Space-Track

Эпоха: Sep 6, 2026, 03:44 UTC

1 32303U 99025CWU 26249.15610783  .00003270  00000-0  13138-2 0  9990
2 32303  97.8092  19.4481 0087390 236.3629 122.9194 14.26669035660454

Отслеживайте FENGYUN 1C DEB в реальном времени с AllMySat

Download on the App Store